Weather History for Araxos, Greece

Change the Weather History Date:

Sunday, October 14, 2012

  Actual Average Record
Temperature  
Mean Temperature 70 °F -  
Max Temperature 78 °F 69 °F 78 °F (2000)
Min Temperature 62 °F 53 °F 48 °F (2008)
Cooling Degree Days 5    
Growing Degree Days 20 (Base 50)    
Moisture  
Dew Point 65 °F    
Average Humidity 91    
Maximum Humidity 100    
Minimum Humidity 69    
Precipitation  
Precipitation 0.00 in - - ()
Sea Level Pressure  
Sea Level Pressure 29.90 in    
Wind  
Wind Speed 4 mph ()    
Max Wind Speed 17 mph    
Max Gust Speed -    
Visibility 5.6 miles    
Events Rain , Thunderstorm    
Averages and records for this station are not official NWS values.
T = Trace of Precipitation, MM = Missing Value Source: Averaged Metar Reports

Daily Weather History Graph

Daily Weather History Graph

Search for Another Location

Airport:

Trip Planner

Search our weather history database for the weather conditions in past years. The results will help you decide how hot, cold, wet, or windy it might be!

Date:

Astronomy

Oct. 14, 2012 Rise Set
Actual Time 7:42 AM EEST 6:57 PM EEST
Civil Twilight 7:15 AM EEST 7:24 PM EEST
Nautical Twilight 6:45 AM EEST 7:54 PM EEST
Astronomical Twilight 6:14 AM EEST 8:25 PM EEST
Moon 6:20 AM EEST (10/14) 6:05 PM EEST (10/14)
Length of Visible Light 12h 08m
Length of Day
11h 15m
Waning Crescent, 2% of the Moon is Illuminated
Oct 14
Waning Crescent
Oct 15
New
Oct 22
First Quarter
Oct 29
Full
Nov 7
Last Quarter

Hourly Weather History & Observations

Time (EEST) Temp. Dew Point Humidity Pressure Visibility Wind Dir Wind Speed Gust Speed Precip Events Conditions
12:50 AM 64.4 °F 62.6 °F 94% 29.95 in 6.2 mi Calm Calm - N/A   Partly Cloudy
1:50 AM 64.4 °F 62.6 °F 94% 29.98 in 6.2 mi Calm Calm - N/A   Scattered Clouds
3:50 AM 64.4 °F 64.4 °F 100% 29.89 in 6.2 mi ENE 4.6 mph - N/A Rain Light Rain
4:50 AM 62.6 °F 62.6 °F 100% 29.89 in 6.2 mi Calm Calm - N/A   Mostly Cloudy
5:50 AM 62.6 °F 62.6 °F 100% 29.89 in 6.2 mi Calm Calm - N/A   Mostly Cloudy
6:20 AM 62.6 °F 62.6 °F 100% 29.89 in 6.2 mi Calm Calm - N/A   Mostly Cloudy
6:50 AM 64.4 °F 64.4 °F 100% 29.89 in 6.2 mi Calm Calm - N/A   Mostly Cloudy
7:50 AM 66.2 °F 64.4 °F 94% 29.89 in 6.2 mi Calm Calm - N/A   Mostly Cloudy
8:20 AM 66.2 °F 64.4 °F 94% 29.89 in 6.2 mi Calm Calm - N/A   Scattered Clouds
8:50 AM 69.8 °F 66.2 °F 88% 29.89 in 6.2 mi Calm Calm - N/A   Mostly Cloudy
9:20 AM 69.8 °F 66.2 °F 88% 29.89 in 6.2 mi Calm Calm - N/A   Mostly Cloudy
9:50 AM 71.6 °F 66.2 °F 83% 29.89 in 6.2 mi Calm Calm - N/A   Scattered Clouds
10:20 AM 71.6 °F 66.2 °F 83% 29.89 in 6.2 mi Calm Calm - N/A   Scattered Clouds
10:50 AM 77.0 °F 66.2 °F 69% 29.92 in 6.2 mi South 4.6 mph - N/A   Scattered Clouds
11:20 AM 77.0 °F 66.2 °F 69% 29.92 in 6.2 mi South 9.2 mph - N/A   Scattered Clouds
11:50 AM 78.8 °F 68.0 °F 69% 29.92 in 6.2 mi South 13.8 mph - N/A   Scattered Clouds
12:20 PM 77.0 °F 68.0 °F 74% 29.92 in 6.2 mi South 16.1 mph - N/A Thunderstorm Thunderstorm
12:50 PM 73.4 °F 73.4 °F 100% 29.95 in 0.6 mi WSW 17.3 mph - N/A Rain , Thunderstorm Heavy Thunderstorms and Rain
1:20 PM 73.4 °F 71.6 °F 94% 29.95 in 3.1 mi South 15.0 mph - N/A Rain , Thunderstorm Light Thunderstorms and Rain
1:50 PM 73.4 °F 71.6 °F 94% 29.92 in 3.1 mi South 11.5 mph - N/A Rain , Thunderstorm Light Thunderstorms and Rain
2:20 PM 75.2 °F 71.6 °F 89% 29.92 in 6.2 mi SE 8.1 mph - N/A   Overcast
2:50 PM 71.6 °F 71.6 °F 100% 29.89 in 6.2 mi Variable 3.5 mph - N/A   Overcast
3:20 PM 68.0 °F 66.2 °F 94% 29.86 in 6.2 mi East 6.9 mph - N/A   Overcast
3:50 PM 68.0 °F 64.4 °F 88% 29.86 in 6.2 mi East 9.2 mph - N/A Thunderstorm Thunderstorm
4:20 PM 66.2 °F 64.4 °F 94% 29.89 in 3.7 mi NNW 4.6 mph - N/A Rain , Thunderstorm Light Thunderstorms and Rain
4:50 PM 64.4 °F 62.6 °F 94% 29.86 in 2.5 mi NE 6.9 mph - N/A Rain , Thunderstorm Light Thunderstorms and Rain
5:20 PM 64.4 °F 62.6 °F 94% 29.86 in 3.7 mi East 4.6 mph - N/A Rain , Thunderstorm Light Thunderstorms and Rain
5:50 PM 66.2 °F 64.4 °F 94% 29.86 in 3.7 mi East 16.1 mph - N/A Rain Light Rain
6:20 PM 66.2 °F 64.4 °F 94% 29.92 in 6.2 mi South 16.1 mph - N/A   Overcast
6:50 PM 66.2 °F 64.4 °F 94% 29.92 in 6.2 mi South 13.8 mph - N/A Rain Light Rain
7:20 PM 66.2 °F 64.4 °F 94% 29.92 in 6.2 mi SSE 11.5 mph - N/A Rain Light Rain
7:50 PM 64.4 °F 62.6 °F 94% 29.92 in 6.2 mi East 5.8 mph - N/A   Overcast
8:20 PM 64.4 °F 62.6 °F 94% 29.92 in 6.2 mi East 5.8 mph - N/A   Overcast
8:50 PM 64.4 °F 62.6 °F 94% 29.89 in 6.2 mi ESE 6.9 mph - N/A   Overcast
9:50 PM 66.2 °F 62.6 °F 88% 29.86 in 6.2 mi East 4.6 mph - N/A   Overcast
10:50 PM 64.4 °F 62.6 °F 94% 29.89 in 6.2 mi Variable 3.5 mph - N/A   Overcast
11:50 PM 66.2 °F 64.4 °F 94% 29.89 in 6.2 mi Calm Calm - N/A   Mostly Cloudy